Probability
13 11 8 7 7 6 5 5 6 6 8 10 10 8 6 5 3 2 3 6 9 10 10 9 8 7 6 4 2 2 1 0 0 0 0 0 0 0 0 0 0 0 0
12 9 7 7 6 5 4 4 4 5 6 6 6 5 4 3 2 1 2 5 8 9 9 8 7 6 6 3 1 1 0 0 0 0 0 0 0 0 0 0 0 0 0
10 8 6 5 4 3 3 3 3 3 3 3 3 3 2 2 1 1 2 4 6 6 6 6 5 5 5 3 1 0 0 0 0 0 0 0 0 0 0 0 0 0 0
6 5 4 3 3 2 2 2 1 1 1 2 2 2 2 2 2 2 2 3 4 4 4 4 4 4 3 1 0 0 0 0 0 0 0 0 0 0 0 0 0 0 0
4 4 3 3 2 1 1 1 0 0 0 1 1 1 1 1 1 1 2 3 3 3 3 3 3 3 1 0 0 0 0 0 0 0 0 0 0 0 0 0 0 0 0
3 3 3 3 2 1 0 0 0 0 0 0 0 0 0 0 0 0 1 2 3 3 3 3 3 2 1 0 0 0 0 0 0 0 0 0 0 0 0 0 0 0 0
2 3 3 3 2 1 0 0 0 0 0 0 0 0 0 0 0 0 1 1 2 2 3 3 3 2 1 0 0 0 0 0 0 0 0 0 0 0 0 0 0 0 0
1 1 2 2 1 0 0 0 0 0 0 0 0 0 0 0 0 0 0 0 1 1 1 2 2 2 1 0 0 0 0 0 0 0 0 0 0 0 0 0 0 0 0
0 0 1 1 0 0 0 0 0 0 0 0 0 0 0 0 0 0 0 0 0 0 0 1 1 1 0 0 0 0 0 0 0 0 0 0 0 0 0 0 0 0 0
0 0 0 0 0 0 0 0 0 0 0 0 0 0 0 0 0 0 0 0 0 0 0 0 0 0 0 0 0 0 0 0 0 0 0 0 0 0 0 0 0 0 0
0 0 0 0 0 0 0 0 0 0 0 0 0 0 0 0 0 0 0 0 0 0 0 0 0 0 0 0 0 0 0 0 0 0 0 0 0 0 0 0 0 0 0
0 0 0 0 0 0 0 0 0 0 0 0 0 0 0 0 0 0 0 0 0 0 0 0 0 0 0 0 0 0 0 0 0 0 0 0 0 0 0 0 0 0 0
0 0 0 0 0 0 0 0 0 0 0 0 0 0 0 0 0 0 0 0 0 0 0 0 0 0 0 0 0 0 0 0 0 0 0 0 0 0 0 0 0 0 0
0 0 0 0 0 0 0 0 0 0 0 0 0 0 0 0 0 0 0 0 0 0 0 0 0 0 0 0 0 0 0 0 0 0 0 0 0 0 0 0 0 0 0
0 0 0 0 0 0 0 0 0 0 0 0 0 0 0 0 0 0 0 0 0 0 0 0 0 0 0 0 0 0 0 0 0 0 0 0 0 0 0 0 0 0 0
0 0 0 0 0 0 0 0 0 0 0 0 0 0 0 0 0 0 0 0 0 0 0 0 0 0 0 0 0 0 0 0 0 0 0 0 0 0 0 0 0 0 0
0 0 0 0 0 0 0 0 0 0 0 0 0 0 0 0 0 0 0 0 0 0 0 0 0 0 0 0 0 0 0 0 0 0 0 0 0 0 0 0 0 0 0
0 0 0 0 0 0 0 0 0 0 0 0 0 0 0 0 0 0 0 0 0 0 0 0 0 0 0 0 0 0 0 0 0 0 0 0 0 0 0 0 0 0 0
0 0 0 0 0 0 0 0 0 0 0 0 0 0 0 0 0 0 0 0 0 0 0 0 0 0 0 0 0 0 0 0 0 0 0 0 0 0 0 0 0 0 0
0 0 0 0 0 0 0 0 0 0 0 0 0 0 0 0 0 0 0 0 0 0 0 0 0 0 0 0 0 0 0 0 0 0 0 0 0 0 0 0 0 0 0
0 0 0 0 0 0 0 0 0 0 0 0 0 0 0 0 0 0 0 0 0 0 0 0 0 0 0 0 0 0 0 0 0 0 0 0 0 0 0 0 0 0 0
0 0 0 0 0 0 0 0 0 0 0 0 0 0 0 0 0 0 0 0 0 0 0 0 0 0 0 0 0 0 0 0 0 0 0 0 0 0 0 0 0 0 0
0 0 0 0 0 0 0 0 0 0 0 0 0 0 0 0 0 0 0 0 0 0 0 0 0 0 0 0 0 0 0 0 0 0 0 0 0 0 0 0 0 0 0
0 0 0 0 0 0 0 0 0 0 0 0 0 0 0 0 0 0 0 0 0 0 0 0 0 0 0 0 0 0 0 0 0 0 0 0 0 0 0 0 0 0 0
0 0 0 0 0 0 0 0 0 0 0 0 0 0 0 0 0 0 0 0 0 0 0 0 0 0 0 0 0 0 0 0 0 0 0 0 0 0 0 0 0 0 0
0 0 0 0 0 0 0 0 0 0 0 0 0 0 0 0 0 0 0 0 0 0 0 0 0 0 0 0 0 0 0 0 0 0 0 0 0 0 0 0 0 0 0
Wind_Speed
5 6 6 6 6 6 6 5 4 3 3 2 2 2 2 2 2 2 3 2 2 2 1 1 1 1 3 4 5 4 6 4 5 5 5 5 6 6 5 5 5 7 8
6 7 7 7 7 6 6 5 5 4 3 2 1 1 2 2 2 2 4 5 4 3 2 1 0 0 1 3 5 5 5 4 4 4 5 3 3 4 5 5 5 6 6
5 6 7 8 8 8 7 5 5 5 4 3 2 3 2 2 2 3 3 5 5 4 4 3 2 1 1 1 3 5 6 5 3 2 4 5 4 3 3 4 5 5 5
5 5 7 8 8 8 7 6 6 5 5 3 3 3 3 2 2 2 2 4 5 5 5 4 3 2 1 1 2 2 3 5 5 2 1 2 5 5 4 3 4 5 6
4 5 6 7 7 7 7 7 6 6 6 5 4 4 4 3 3 3 4 4 5 6 6 5 5 4 3 3 3 3 3 2 3 3 2 3 3 3 5 5 3 4 4
5 6 6 7 7 8 8 8 8 8 7 7 7 6 6 5 5 6 5 5 4 6 8 7 6 6 5 5 5 5 5 4 5 4 3 3 3 3 4 5 6 4 3
5 5 6 7 7 9 9 8 9 9 8 8 8 7 7 7 7 6 6 5 5 5 7 7 7 6 6 6 7 7 7 6 6 5 3 3 2 3 4 7 6 4 2
5 5 6 6 7 8 8 8 9 9 9 9 8 8 8 6 6 7 6 5 5 5 6 7 7 8 8 8 8 8 7 7 8 8 6 5 4 3 4 5 7 6 3
6 6 6 6 7 7 8 8 8 9 9 9 9 9 8 8 7 7 7 5 5 6 8 8 8 9 9 9 8 7 7 8 8 8 8 6 5 5 4 4 5 6 5
6 5 5 6 6 7 7 8 9 9 9 9 8 8 8 8 8 8 9 8 8 8 8 9 9 9 9 9 9 8 8 10 8 7 9 8 5 6 5 5 4 3 5
6 5 5 5 6 7 7 8 8 9 9 9 8 9 8 8 9 8 8 8 8 8 9 9 9 10 9 9 9 9 9 10 9 8 9 9 7 6 5 5 5 4 4
7 6 5 6 6 7 7 7 7 8 7 7 8 8 8 8 9 9 8 8 8 8 9 9 9 9 9 9 9 10 9 9 9 8 9 8 7 8 6 5 6 5 4
8 6 6 6 6 6 6 7 7 7 7 7 8 8 8 9 9 8 8 8 9 9 9 9 9 8 8 8 8 9 9 9 9 8 9 8 8 8 6 6 6 5 5
8 7 6 5 5 5 5 6 6 6 7 7 8 8 8 7 7 7 8 8 8 8 8 8 8 8 8 8 8 8 9 9 9 8 8 7 7 6 6 6 6 6 6
9 8 6 5 5 5 5 5 5 5 6 7 7 7 6 7 7 8 8 8 8 8 7 8 8 7 7 6 7 7 8 8 8 8 8 8 9 9 5 4 4 5 5
10 8 7 6 6 6 5 5 5 4 5 6 6 6 6 6 6 6 7 7 7 7 8 8 8 8 6 8 9 8 7 7 7 7 7 7 9 10 10 9 7 5 4
10 9 8 6 6 5 5 4 4 4 5 5 5 5 5 5 5 6 7 7 6 7 7 7 7 7 7 9 10 10 7 7 6 6 6 6 7 7 6 8 9 8 6
11 9 8 7 5 5 5 4 4 4 5 5 5 5 5 6 6 6 6 5 5 5 5 6 6 6 7 9 9 10 8 7 7 6 6 5 6 6 5 5 6 5 4
9 8 7 7 6 6 5 5 5 4 4 5 4 4 5 5 5 5 5 4 4 5 5 5 6 6 6 8 8 8 5 6 6 5 5 5 5 6 6 5 5 4 4
9 8 8 7 7 5 5 6 5 4 4 4 4 4 5 5 5 4 4 3 4 4 5 6 6 6 6 7 8 6 4 5 4 4 4 6 5 5 5 4 3 3 3
10 9 9 7 6 5 6 6 5 4 3 4 5 5 4 4 4 4 3 4 4 5 5 6 6 6 7 7 8 7 4 3 3 3 3 3 6 5 4 2 1 1 2
10 9 8 7 5 5 6 6 4 3 4 5 5 5 4 3 4 5 4 4 4 5 4 4 5 5 5 7 7 8 6 3 2 2 2 3 5 4 4 2 2 1 1
9 7 8 7 5 5 6 6 4 4 5 5 5 4 4 4 3 4 4 3 3 3 3 3 3 3 3 4 7 8 7 6 2 2 4 4 5 5 4 7 6 4 2
8 7 8 7 5 4 5 5 4 5 6 6 4 4 4 4 4 3 3 3 2 2 2 2 2 2 2 3 3 3 3 4 3 3 4 6 7 6 5 5 5 4 3
6 7 8 7 6 5 5 5 5 6 6 5 4 4 4 4 4 4 3 2 1 1 2 2 2 2 1 2 2 1 2 2 2 2 3 4 4 4 4 3 3 3 3
7 7 7 7 6 6 5 4 5 6 6 4 3 3 3 3 3 3 3 5 3 3 3 4 3 1 2 1 2 3 3 3 2 2 2 2 2 2 3 3 3 2 3
Wind_Direction
44 38 36 37 40 38 41 40 37 38 56 90 101 96 80 53 41 33 23 31 21 356 293 252 223 201 207 204 184 160 147 140 129 111 98 67 63 63 58 69 78 79 78
44 32 34 35 33 31 27 26 26 28 35 54 82 96 96 81 61 31 25 23 24 13 359 345 348 82 211 198 179 158 151 152 153 140 132 124 82 53 50 63 76 79 78
53 32 31 29 29 24 17 15 22 27 30 43 76 89 77 64 40 28 24 20 27 30 27 21 27 48 105 158 175 171 163 161 159 144 147 152 155 119 56 56 72 79 81
58 45 36 30 26 17 15 20 23 29 34 44 73 100 103 90 55 41 35 31 31 35 35 34 35 43 51 104 148 158 152 157 160 140 83 96 131 139 125 73 65 74 77
67 56 43 35 29 22 20 23 29 33 38 48 61 77 80 83 78 62 52 44 38 35 35 40 44 46 47 57 82 97 103 130 140 132 116 93 83 98 129 136 123 83 62
72 59 47 40 34 31 29 28 35 36 38 52 58 69 76 75 72 62 52 44 37 32 32 39 43 47 48 52 65 76 84 92 97 95 97 125 138 140 126 132 135 117 80
76 59 48 40 37 35 34 35 38 39 40 52 56 59 66 67 64 61 56 51 43 37 32 39 43 47 52 56 65 72 71 78 88 87 80 75 78 117 119 126 126 110 87
83 68 60 50 43 41 38 40 45 45 44 50 53 55 59 64 61 59 60 56 51 46 42 48 51 51 56 60 63 67 67 70 74 74 73 71 59 82 112 128 134 119 87
91 75 62 55 50 48 44 45 50 51 50 51 55 54 55 62 63 62 60 56 50 55 53 55 56 55 57 60 65 67 67 71 68 69 70 68 59 64 75 103 126 132 133
99 86 74 64 57 55 52 51 55 57 54 52 55 60 56 60 63 65 62 58 54 53 56 58 58 58 57 60 65 64 62 68 63 65 68 64 62 65 70 82 80 94 121
116 100 87 75 66 59 57 54 55 58 56 55 56 58 57 58 61 61 59 58 57 57 58 58 60 60 58 59 65 64 64 67 63 61 68 65 63 70 69 75 79 81 97
120 112 101 87 74 66 63 60 58 60 59 61 61 61 61 61 61 59 55 58 59 58 59 60 60 61 60 59 63 67 64 67 65 62 66 63 68 65 62 70 74 75 79
123 115 103 92 84 76 71 67 63 62 62 65 65 62 60 61 60 58 57 59 61 59 59 62 62 61 62 63 64 68 67 66 65 63 65 62 70 68 67 72 75 75 79
131 123 110 100 92 85 79 76 68 63 67 69 68 64 59 60 61 61 59 57 59 61 60 61 62 62 63 66 69 70 69 67 64 62 63 62 66 72 75 78 81 87 86
137 132 122 112 103 95 85 79 72 65 70 75 73 68 63 63 62 62 61 59 58 61 61 63 59 55 57 63 73 73 73 70 65 57 54 58 63 66 69 87 95 97 94
142 137 132 125 118 111 102 91 80 73 76 79 78 76 72 66 64 65 66 64 58 56 59 57 59 54 53 67 76 81 74 69 65 57 49 52 48 51 59 74 88 107 113
145 142 140 136 129 122 115 103 92 83 81 81 82 84 83 78 71 74 70 66 59 58 57 52 57 56 50 68 78 79 78 71 63 57 50 48 41 48 59 63 65 65 80
146 143 139 133 126 119 111 104 97 94 92 87 85 85 86 82 75 73 70 65 61 60 56 51 52 55 47 64 81 82 76 71 62 56 54 55 40 42 60 68 63 56 50
138 136 134 129 125 122 119 111 101 98 95 96 96 96 98 94 86 81 74 68 71 65 57 52 51 54 39 55 79 84 79 70 55 45 45 50 47 40 60 70 63 48 22
127 128 124 119 120 120 117 108 106 103 103 105 101 96 97 97 93 87 76 70 78 74 70 60 48 50 43 50 73 82 83 71 53 36 29 35 36 37 57 71 65 43 0
128 127 125 125 129 128 117 110 110 113 115 106 98 91 91 97 97 84 74 84 85 78 70 65 50 44 40 44 59 69 74 76 57 35 10 359 7 28 51 76 88 306 314
127 129 127 125 125 126 121 115 115 112 103 97 92 87 84 95 104 99 87 82 88 84 72 66 53 37 29 36 51 59 62 71 67 23 341 330 357 34 48 49 35 47 64
130 129 129 124 118 121 125 123 124 113 103 95 90 87 80 71 85 103 105 91 87 92 85 76 64 34 21 23 37 44 43 47 51 354 353 13 40 55 51 45 49 56 57
130 129 128 127 126 124 120 126 125 112 104 97 86 81 83 75 67 70 81 97 102 105 104 103 90 49 21 12 8 11 15 21 26 12 13 34 50 53 46 38 35 37 39
125 131 135 136 135 127 121 125 123 116 107 101 95 88 82 85 75 67 60 80 91 181 155 157 148 132 60 315 324 352 354 351 353 8 30 30 27 28 22 21 25 26 30
127 129 130 132 131 129 126 127 130 126 118 108 104 105 103 95 91 86 62 44 54 79 136 154 157 185 222 266 334 351 353 355 23 64 49 35 26 20 8 360 360 10 16